Time,TemperatureF,DewpointF,PressureIn,WindDirection,WindDirectionDegrees,WindSpeedMPH,WindSpeedGustMPH,Humidity,HourlyPrecipIn,Conditions,Clouds,dailyrainin,SolarRadiationWatts/m^2,SoftwareType,DateUTC
2013-02-01 00:00:00,50.0,48.6,30.13,SE,134,3.0,4.0,95,0.00,,,0.00,0.0,WeatherDisplay:10.37,2013-01-31 23:00:00,
2013-02-01 00:05:00,50.3,48.9,30.13,SE,134,2.0,4.0,95,0.00,,,0.00,0.0,WeatherDisplay:10.37,2013-01-31 23:05:00,
2013-02-01 00:10:00,50.5,49.1,30.13,SE,134,1.0,3.0,95,0.00,,,0.00,0.0,WeatherDisplay:10.37,2013-01-31 23:10:00,
2013-02-01 00:20:00,50.8,49.4,30.14,SE,134,2.0,3.0,95,0.00,,,0.00,0.0,WeatherDisplay:10.37,2013-01-31 23:20:00,
2013-02-01 00:25:00,50.7,49.3,30.14,SE,134,1.0,3.0,95,0.00,,,0.00,0.0,WeatherDisplay:10.37,2013-01-31 23:25:00,
2013-02-01 00:30:00,50.5,49.1,30.13,SE,134,2.0,4.0,95,0.00,,,0.00,0.0,WeatherDisplay:10.37,2013-01-31 23:30:00,
2013-02-01 00:35:00,50.5,48.9,30.13,SE,135,1.0,4.0,94,0.00,,,0.00,0.0,WeatherDisplay:10.37,2013-01-31 23:35:00,
2013-02-01 00:40:00,50.5,48.8,30.13,SE,135,2.0,3.0,94,0.00,,,0.00,0.0,WeatherDisplay:10.37,2013-01-31 23:40:00,
2013-02-01 00:45:00,50.5,48.8,30.13,SE,136,1.0,4.0,94,0.00,,,0.00,0.0,WeatherDisplay:10.37,2013-01-31 23:45:00,
2013-02-01 00:50:00,50.9,49.2,30.13,SE,136,1.0,4.0,94,0.00,,,0.00,0.0,WeatherDisplay:10.37,2013-01-31 23:50:00,
2013-02-01 00:55:00,50.8,48.8,30.13,SE,136,2.0,4.0,93,0.00,,,0.00,0.0,WeatherDisplay:10.37,2013-01-31 23:55:00,
2013-02-01 01:00:00,50.7,48.7,30.13,SE,136,3.0,5.0,93,0.00,,,0.00,0.0,WeatherDisplay:10.37,2013-02-01 00:00:00,
2013-02-01 01:05:00,50.6,48.7,30.12,SE,136,3.0,5.0,93,0.00,,,0.00,0.0,WeatherDisplay:10.37,2013-02-01 00:05:00,
2013-02-01 01:10:00,50.6,48.4,30.12,SE,137,2.0,5.0,92,0.00,,,0.00,0.0,WeatherDisplay:10.37,2013-02-01 00:10:00,
2013-02-01 01:15:00,50.6,48.4,30.11,SE,138,1.0,4.0,92,0.00,,,0.00,0.0,WeatherDisplay:10.37,2013-02-01 00:15:00,
2013-02-01 01:20:00,50.5,48.3,30.11,SE,138,2.0,4.0,92,0.00,,,0.00,0.0,WeatherDisplay:10.37,2013-02-01 00:20:00,
2013-02-01 01:25:00,50.5,48.0,30.11,SE,138,2.0,6.0,91,0.00,,,0.00,0.0,WeatherDisplay:10.37,2013-02-01 00:25:00,
2013-02-01 01:30:00,50.5,48.0,30.10,SE,138,0.0,3.0,91,0.00,,,0.00,0.0,WeatherDisplay:10.37,2013-02-01 00:30:00,
2013-02-01 01:35:00,50.7,48.2,30.10,SE,138,1.0,6.0,91,0.00,,,0.00,0.0,WeatherDisplay:10.37,2013-02-01 00:35:00,
2013-02-01 01:40:00,50.6,47.8,30.10,SE,139,3.0,5.0,90,0.00,,,0.00,0.0,WeatherDisplay:10.37,2013-02-01 00:40:00,
2013-02-01 01:45:00,50.7,47.8,30.10,SE,141,3.0,5.0,90,0.00,,,0.00,0.0,WeatherDisplay:10.37,2013-02-01 00:45:00,
2013-02-01 01:50:00,50.8,47.7,30.10,SE,144,5.0,7.0,89,0.00,,,0.00,0.0,WeatherDisplay:10.37,2013-02-01 00:50:00,
2013-02-01 01:55:00,51.1,48.0,30.10,SE,146,2.0,8.0,89,0.00,,,0.00,0.0,WeatherDisplay:10.37,2013-02-01 00:55:00,
2013-02-01 02:00:00,51.2,48.1,30.10,SE,146,2.0,6.0,89,0.00,,,0.00,0.0,WeatherDisplay:10.37,2013-02-01 01:00:00,
2013-02-01 02:05:00,51.6,48.5,30.10,SSE,149,3.0,9.0,89,0.00,,,0.00,0.0,WeatherDisplay:10.37,2013-02-01 01:05:00,
2013-02-01 02:10:00,51.7,48.2,30.09,SSE,149,5.0,8.0,88,0.00,,,0.00,0.0,WeatherDisplay:10.37,2013-02-01 01:10:00,
2013-02-01 02:15:00,51.9,48.8,30.09,SE,145,3.0,9.0,89,0.00,,,0.00,0.0,WeatherDisplay:10.37,2013-02-01 01:15:00,
2013-02-01 02:20:00,52.2,49.1,30.08,SE,142,6.0,10.0,89,0.00,,,0.00,0.0,WeatherDisplay:10.37,2013-02-01 01:20:00,
2013-02-01 02:25:00,52.6,49.7,30.08,SE,139,7.0,14.0,90,0.00,,,0.00,0.0,WeatherDisplay:10.37,2013-02-01 01:25:00,
2013-02-01 02:30:00,52.5,49.7,30.08,SE,142,5.0,9.0,90,0.00,,,0.00,0.0,WeatherDisplay:10.37,2013-02-01 01:30:00,
2013-02-01 02:35:00,52.5,49.7,30.08,SE,146,3.0,9.0,90,0.00,,,0.00,0.0,WeatherDisplay:10.37,2013-02-01 01:35:00,
2013-02-01 02:40:00,52.4,49.6,30.08,SE,136,5.0,8.0,90,0.00,,,0.00,0.0,WeatherDisplay:10.37,2013-02-01 01:40:00,
2013-02-01 02:45:00,52.4,49.8,30.08,SE,136,3.0,9.0,91,0.00,,,0.00,0.0,WeatherDisplay:10.37,2013-02-01 01:45:00,
2013-02-01 02:50:00,52.4,49.8,30.08,SE,135,3.0,9.0,91,0.00,,,0.00,0.0,WeatherDisplay:10.37,2013-02-01 01:50:00,
2013-02-01 02:55:00,52.3,49.8,30.08,SE,134,3.0,7.0,91,0.00,,,0.00,0.0,WeatherDisplay:10.37,2013-02-01 01:55:00,
2013-02-01 03:00:00,52.3,49.8,30.08,SE,135,3.0,7.0,91,0.00,,,0.00,0.0,WeatherDisplay:10.37,2013-02-01 02:00:00,
2013-02-01 03:05:00,52.3,49.8,30.08,SE,132,5.0,7.0,91,0.00,,,0.00,0.0,WeatherDisplay:10.37,2013-02-01 02:05:00,
2013-02-01 03:10:00,52.4,49.8,30.07,SE,141,6.0,12.0,91,0.00,,,0.00,0.0,WeatherDisplay:10.37,2013-02-01 02:10:00,
2013-02-01 03:15:00,52.4,49.8,30.07,SE,144,3.0,10.0,91,0.00,,,0.00,0.0,WeatherDisplay:10.37,2013-02-01 02:15:00,
2013-02-01 03:20:00,52.5,49.9,30.07,SE,143,5.0,13.0,91,0.00,,,0.00,0.0,WeatherDisplay:10.37,2013-02-01 02:20:00,
2013-02-01 03:25:00,52.6,50.0,30.07,SE,145,5.0,10.0,91,0.00,,,0.00,0.0,WeatherDisplay:10.37,2013-02-01 02:25:00,
2013-02-01 03:30:00,52.6,50.0,30.06,SE,138,6.0,12.0,91,0.00,,,0.00,0.0,WeatherDisplay:10.37,2013-02-01 02:30:00,
2013-02-01 03:35:00,52.6,50.0,30.06,SE,131,6.0,12.0,91,0.00,,,0.00,0.0,WeatherDisplay:10.37,2013-02-01 02:35:00,
2013-02-01 03:40:00,52.6,50.0,30.06,SE,137,5.0,13.0,91,0.00,,,0.00,0.0,WeatherDisplay:10.37,2013-02-01 02:40:00,
2013-02-01 03:45:00,52.4,49.6,30.06,SSE,147,5.0,12.0,90,0.00,,,0.00,0.0,WeatherDisplay:10.37,2013-02-01 02:45:00,
2013-02-01 03:50:00,52.3,49.5,30.06,SE,142,3.0,8.0,90,0.00,,,0.00,0.0,WeatherDisplay:10.37,2013-02-01 02:50:00,
2013-02-01 03:55:00,52.1,49.6,30.06,SE,138,2.0,7.0,91,0.00,,,0.00,0.0,WeatherDisplay:10.37,2013-02-01 02:55:00,
2013-02-01 04:05:00,52.0,49.5,30.06,SE,146,3.0,7.0,91,0.00,,,0.00,0.0,WeatherDisplay:10.37,2013-02-01 03:05:00,
2013-02-01 04:10:00,51.8,49.3,30.05,SE,145,2.0,8.0,91,0.00,,,0.00,0.0,WeatherDisplay:10.37,2013-02-01 03:10:00,
2013-02-01 04:15:00,51.9,49.4,30.05,SE,138,3.0,7.0,91,0.00,,,0.00,0.0,WeatherDisplay:10.37,2013-02-01 03:15:00,
2013-02-01 04:20:00,51.8,49.3,30.06,SE,139,3.0,7.0,91,0.00,,,0.00,0.0,WeatherDisplay:10.37,2013-02-01 03:20:00,
2013-02-01 04:25:00,52.0,49.4,30.06,SE,140,2.0,5.0,91,0.00,,,0.00,0.0,WeatherDisplay:10.37,2013-02-01 03:25:00,
2013-02-01 04:30:00,52.0,49.5,30.06,SE,138,1.0,5.0,91,0.00,,,0.00,0.0,WeatherDisplay:10.37,2013-02-01 03:30:00,
2013-02-01 04:35:00,51.9,49.1,30.06,SE,138,1.0,4.0,90,0.00,,,0.00,0.0,WeatherDisplay:10.37,2013-02-01 03:35:00,
2013-02-01 04:40:00,51.9,49.4,30.05,SE,138,2.0,4.0,91,0.00,,,0.00,0.0,WeatherDisplay:10.37,2013-02-01 03:40:00,
2013-02-01 04:45:00,52.0,49.5,30.05,SE,141,3.0,5.0,91,0.00,,,0.00,0.0,WeatherDisplay:10.37,2013-02-01 03:45:00,
2013-02-01 04:50:00,52.0,49.4,30.05,SE,146,2.0,5.0,91,0.00,,,0.00,0.0,WeatherDisplay:10.37,2013-02-01 03:50:00,
2013-02-01 04:55:00,51.9,49.1,30.05,SSE,149,2.0,4.0,90,0.00,,,0.00,0.0,WeatherDisplay:10.37,2013-02-01 03:55:00,
2013-02-01 05:00:00,51.8,49.0,30.05,SSE,149,1.0,4.0,90,0.00,,,0.00,0.0,WeatherDisplay:10.37,2013-02-01 04:00:00,
2013-02-01 05:05:00,51.7,48.9,30.04,SSE,149,1.0,3.0,90,0.00,,,0.00,0.0,WeatherDisplay:10.37,2013-02-01 04:05:00,
2013-02-01 05:10:00,51.6,48.8,30.04,SSE,149,2.0,4.0,90,0.00,,,0.00,0.0,WeatherDisplay:10.37,2013-02-01 04:10:00,
2013-02-01 05:15:00,51.5,49.0,30.04,SSE,149,1.0,3.0,91,0.00,,,0.00,0.0,WeatherDisplay:10.37,2013-02-01 04:15:00,
2013-02-01 05:20:00,51.6,49.1,30.05,SSE,149,2.0,3.0,91,0.00,,,0.00,0.0,WeatherDisplay:10.37,2013-02-01 04:20:00,
2013-02-01 05:25:00,51.6,49.1,30.05,SSE,149,0.0,3.0,91,0.00,,,0.00,0.0,WeatherDisplay:10.37,2013-02-01 04:25:00,
2013-02-01 05:30:00,51.4,48.9,30.05,SSE,149,1.0,3.0,91,0.00,,,0.00,0.0,WeatherDisplay:10.37,2013-02-01 04:30:00,
2013-02-01 05:35:00,51.4,48.9,30.05,SSE,149,1.0,3.0,91,0.00,,,0.00,0.0,WeatherDisplay:10.37,2013-02-01 04:35:00,
2013-02-01 05:40:00,51.1,48.6,30.04,SE,140,2.0,4.0,91,0.00,,,0.00,0.0,WeatherDisplay:10.37,2013-02-01 04:40:00,
2013-02-01 05:45:00,50.5,47.7,30.04,ESE,116,3.0,5.0,90,0.00,,,0.00,0.0,WeatherDisplay:10.37,2013-02-01 04:45:00,
2013-02-01 05:50:00,50.5,47.9,30.04,ENE,64,1.0,5.0,91,0.00,,,0.00,0.0,WeatherDisplay:10.37,2013-02-01 04:50:00,
2013-02-01 05:55:00,50.6,48.1,30.04,East,92,2.0,5.0,91,0.00,,,0.00,0.0,WeatherDisplay:10.37,2013-02-01 04:55:00,
2013-02-01 06:05:00,50.6,48.1,30.04,SE,141,3.0,5.0,91,0.00,OVC,,0.00,0.0,WeatherDisplay:10.37,2013-02-01 05:05:00,
2013-02-01 06:10:00,48.7,45.9,30.03,ENE,58,6.0,7.0,90,0.00,,,0.00,0.0,WeatherDisplay:10.37,2013-02-01 05:10:00,
2013-02-01 06:15:00,48.5,45.7,30.03,East,94,3.0,8.0,90,0.00,,,0.00,0.0,WeatherDisplay:10.37,2013-02-01 05:15:00,
2013-02-01 06:25:00,49.0,46.5,30.03,East,92,1.0,5.0,91,0.00,,,0.00,0.0,WeatherDisplay:10.37,2013-02-01 05:25:00,
2013-02-01 06:30:00,48.7,46.2,30.04,East,92,2.0,5.0,91,0.00,,,0.00,0.0,WeatherDisplay:10.37,2013-02-01 05:30:00,
2013-02-01 06:35:00,48.6,46.0,30.04,East,92,2.0,3.0,91,0.00,,,0.00,0.0,WeatherDisplay:10.37,2013-02-01 05:35:00,
2013-02-01 06:40:00,48.5,46.0,30.05,East,82,5.0,6.0,91,0.00,,,0.00,0.0,WeatherDisplay:10.37,2013-02-01 05:40:00,
2013-02-01 06:45:00,48.5,46.0,30.04,ENE,63,3.0,5.0,91,0.00,,,0.00,0.0,WeatherDisplay:10.37,2013-02-01 05:45:00,
2013-02-01 06:50:00,48.5,46.0,30.04,NE,55,2.0,4.0,91,0.00,,,0.00,0.0,WeatherDisplay:10.37,2013-02-01 05:50:00,
2013-02-01 06:55:00,48.7,46.2,30.05,NE,51,2.0,5.0,91,0.00,,,0.00,0.0,WeatherDisplay:10.37,2013-02-01 05:55:00,
2013-02-01 07:00:00,48.7,46.2,30.04,NE,50,2.0,4.0,91,0.00,OVC,,0.00,0.0,WeatherDisplay:10.37,2013-02-01 06:00:00,
2013-02-01 07:05:00,48.6,46.1,30.05,NE,50,3.0,5.0,91,0.00,OVC,,0.00,0.0,WeatherDisplay:10.37,2013-02-01 06:05:00,
2013-02-01 07:10:00,48.5,46.0,30.05,NE,50,3.0,6.0,91,0.00,OVC,,0.00,0.0,WeatherDisplay:10.37,2013-02-01 06:10:00,
2013-02-01 07:15:00,48.4,45.9,30.05,NE,51,3.0,5.0,91,0.00,FEW,,0.00,0.0,WeatherDisplay:10.37,2013-02-01 06:15:00,
2013-02-01 07:20:00,48.0,45.5,30.05,NE,51,3.0,7.0,91,0.00,FEW,,0.00,0.0,WeatherDisplay:10.37,2013-02-01 06:20:00,
2013-02-01 07:25:00,47.6,45.1,30.05,NE,56,3.0,7.0,91,0.00,FEW,,0.00,5.0,WeatherDisplay:10.37,2013-02-01 06:25:00,
2013-02-01 07:30:00,47.5,45.0,30.05,ENE,59,3.0,7.0,91,0.00,FEW,,0.00,9.0,WeatherDisplay:10.37,2013-02-01 06:30:00,
2013-02-01 07:40:00,47.5,45.0,30.04,NE,48,2.0,4.0,91,0.00,FEW,,0.00,18.0,WeatherDisplay:10.37,2013-02-01 06:40:00,
2013-02-01 07:50:00,47.4,44.9,30.04,NE,48,1.0,6.0,91,0.00,SCT,,0.00,26.0,WeatherDisplay:10.37,2013-02-01 06:50:00,
2013-02-01 07:55:00,47.5,45.0,30.04,NE,48,1.0,4.0,91,0.00,SCT,,0.00,30.0,WeatherDisplay:10.37,2013-02-01 06:55:00,
2013-02-01 08:00:00,47.7,45.2,30.04,NE,48,2.0,4.0,91,0.00,SCT,,0.00,35.0,WeatherDisplay:10.37,2013-02-01 07:00:00,
2013-02-01 08:05:00,47.8,45.3,30.04,NE,49,2.0,4.0,91,0.00,SCT,,0.00,40.0,WeatherDisplay:10.37,2013-02-01 07:05:00,
2013-02-01 08:10:00,47.8,45.3,30.04,NE,50,2.0,5.0,91,0.00,SCT,,0.00,53.0,WeatherDisplay:10.37,2013-02-01 07:10:00,
2013-02-01 08:15:00,47.8,45.3,30.04,ENE,59,3.0,7.0,91,0.00,BKN,,0.00,56.0,WeatherDisplay:10.37,2013-02-01 07:15:00,
2013-02-01 08:20:00,47.8,45.3,30.04,ENE,61,2.0,8.0,91,0.00,BKN,,0.00,70.0,WeatherDisplay:10.37,2013-02-01 07:20:00,
2013-02-01 08:25:00,48.0,45.5,30.04,ENE,57,3.0,7.0,91,0.00,BKN,,0.00,86.0,WeatherDisplay:10.37,2013-02-01 07:25:00,
2013-02-01 08:30:00,48.3,45.8,30.04,NE,56,3.0,6.0,91,0.00,BKN,,0.00,98.0,WeatherDisplay:10.37,2013-02-01 07:30:00,
2013-02-01 08:35:00,48.3,45.8,30.04,NE,56,1.0,6.0,91,0.00,BKN,,0.00,111.0,WeatherDisplay:10.37,2013-02-01 07:35:00,
2013-02-01 08:40:00,48.5,46.0,30.04,ENE,57,1.0,5.0,91,0.00,BKN,,0.00,125.0,WeatherDisplay:10.37,2013-02-01 07:40:00,
2013-02-01 08:45:00,48.7,45.9,30.04,ENE,57,2.0,4.0,90,0.00,BKN,,0.00,134.0,WeatherDisplay:10.37,2013-02-01 07:45:00,
2013-02-01 08:50:00,49.0,46.2,30.04,ENE,57,2.0,5.0,90,0.00,BKN,,0.00,118.0,WeatherDisplay:10.37,2013-02-01 07:50:00,
2013-02-01 08:55:00,49.1,46.3,30.04,ENE,57,3.0,7.0,90,0.00,BKN,,0.00,172.0,WeatherDisplay:10.37,2013-02-01 07:55:00,
2013-02-01 09:00:00,49.4,46.6,30.04,NE,56,1.0,4.0,90,0.00,SCT,,0.00,181.0,WeatherDisplay:10.37,2013-02-01 08:00:00,
2013-02-01 09:05:00,49.9,47.1,30.04,NE,56,2.0,5.0,90,0.00,SCT,,0.00,204.0,WeatherDisplay:10.37,2013-02-01 08:05:00,
2013-02-01 09:10:00,50.1,47.0,30.04,NE,56,2.0,6.0,89,0.00,SCT,,0.00,216.0,WeatherDisplay:10.37,2013-02-01 08:10:00,
2013-02-01 09:15:00,50.3,47.2,30.04,ENE,57,0.0,3.0,89,0.00,SCT,,0.00,223.0,WeatherDisplay:10.37,2013-02-01 08:15:00,
2013-02-01 09:20:00,51.0,47.9,30.04,ENE,57,0.0,2.0,89,0.00,SCT,,0.00,241.0,WeatherDisplay:10.37,2013-02-01 08:20:00,
2013-02-01 09:25:00,51.6,48.2,30.04,ENE,57,0.0,3.0,88,0.00,SCT,,0.00,255.0,WeatherDisplay:10.37,2013-02-01 08:25:00,
2013-02-01 09:30:00,51.7,47.9,30.04,ENE,57,1.0,4.0,87,0.00,SCT,,0.00,267.0,WeatherDisplay:10.37,2013-02-01 08:30:00,
2013-02-01 09:35:00,51.9,48.2,30.04,ENE,57,1.0,3.0,87,0.00,FEW,,0.00,283.0,WeatherDisplay:10.37,2013-02-01 08:35:00,
2013-02-01 09:40:00,52.7,48.6,30.04,ENE,57,0.0,3.0,86,0.00,FEW,,0.00,295.0,WeatherDisplay:10.37,2013-02-01 08:40:00,
2013-02-01 09:45:00,53.6,49.6,30.04,ENE,57,0.0,2.0,86,0.00,FEW,,0.00,295.0,WeatherDisplay:10.37,2013-02-01 08:45:00,
2013-02-01 09:50:00,54.1,49.4,30.04,ENE,57,0.0,3.0,84,0.00,FEW,,0.00,292.0,WeatherDisplay:10.37,2013-02-01 08:50:00,
2013-02-01 09:55:00,54.4,49.7,30.04,ENE,57,1.0,3.0,84,0.00,FEW,,0.00,329.0,WeatherDisplay:10.37,2013-02-01 08:55:00,
2013-02-01 10:00:00,55.4,50.7,30.04,ENE,57,0.0,3.0,84,0.00,FEW,,0.00,339.0,WeatherDisplay:10.37,2013-02-01 09:00:00,
2013-02-01 10:05:00,55.5,50.4,30.04,East,91,1.0,5.0,83,0.00,CLR,,0.00,350.0,WeatherDisplay:10.37,2013-02-01 09:05:00,
2013-02-01 10:10:00,56.2,51.4,30.04,ESE,117,1.0,4.0,84,0.00,CLR,,0.00,362.0,WeatherDisplay:10.37,2013-02-01 09:10:00,
2013-02-01 10:15:00,57.0,51.9,30.04,SE,144,1.0,4.0,83,0.00,BKN,,0.00,130.0,WeatherDisplay:10.37,2013-02-01 09:15:00,
2013-02-01 10:20:00,56.5,51.4,30.04,SSE,156,3.0,12.0,83,0.00,BKN,,0.00,178.0,WeatherDisplay:10.37,2013-02-01 09:20:00,
2013-02-01 10:25:00,56.5,52.1,30.04,SSE,160,6.0,12.0,85,0.00,BKN,,0.00,239.0,WeatherDisplay:10.37,2013-02-01 09:25:00,
2013-02-01 10:30:00,56.9,52.7,30.04,SSE,162,3.0,12.0,86,0.00,BKN,,0.00,195.0,WeatherDisplay:10.37,2013-02-01 09:30:00,
2013-02-01 10:35:00,56.6,52.1,30.04,SSE,166,7.0,12.0,85,0.00,BKN,,0.00,234.0,WeatherDisplay:10.37,2013-02-01 09:35:00,
2013-02-01 10:40:00,56.9,52.4,30.03,SSE,151,5.0,12.0,85,0.00,BKN,,0.00,230.0,WeatherDisplay:10.37,2013-02-01 09:40:00,
2013-02-01 10:45:00,56.7,52.2,30.03,SSE,150,6.0,12.0,85,0.00,BKN,,0.00,202.0,WeatherDisplay:10.37,2013-02-01 09:45:00,
2013-02-01 10:50:00,56.6,52.2,30.03,SSE,155,7.0,12.0,85,0.00,BKN,,0.00,223.0,WeatherDisplay:10.37,2013-02-01 09:50:00,
2013-02-01 10:55:00,56.5,52.1,30.03,South,170,7.0,13.0,85,0.00,BKN,,0.00,239.0,WeatherDisplay:10.37,2013-02-01 09:55:00,
2013-02-01 11:00:00,56.8,52.3,30.03,South,171,7.0,12.0,85,0.00,BKN,,0.00,251.0,WeatherDisplay:10.37,2013-02-01 10:00:00,
2013-02-01 11:05:00,56.9,52.4,30.03,SSE,164,7.0,13.0,85,0.00,BKN,,0.00,299.0,WeatherDisplay:10.37,2013-02-01 10:05:00,
2013-02-01 11:10:00,57.4,52.6,30.03,SSE,162,6.0,12.0,84,0.00,BKN,,0.00,529.0,WeatherDisplay:10.37,2013-02-01 10:10:00,
2013-02-01 11:15:00,57.5,52.4,30.03,SE,143,8.0,13.0,83,0.00,BKN,,0.00,225.0,WeatherDisplay:10.37,2013-02-01 10:15:00,
2013-02-01 11:20:00,57.2,52.4,30.03,SSE,156,6.0,12.0,84,0.00,BKN,,0.00,246.0,WeatherDisplay:10.37,2013-02-01 10:20:00,
2013-02-01 11:25:00,57.6,52.8,30.03,SSE,158,2.0,8.0,84,0.00,BKN,,0.00,269.0,WeatherDisplay:10.37,2013-02-01 10:25:00,
2013-02-01 11:30:00,57.6,52.5,30.03,SSE,159,7.0,13.0,83,0.00,BKN,,0.00,334.0,WeatherDisplay:10.37,2013-02-01 10:30:00,
2013-02-01 11:35:00,57.5,52.4,30.03,SSE,159,6.0,12.0,83,0.00,BKN,,0.00,246.0,WeatherDisplay:10.37,2013-02-01 10:35:00,
2013-02-01 11:40:00,57.6,52.5,30.02,SSE,156,6.0,12.0,83,0.00,BKN,,0.00,276.0,WeatherDisplay:10.37,2013-02-01 10:40:00,
2013-02-01 11:45:00,57.5,52.4,30.02,SSE,163,6.0,12.0,83,0.00,BKN,,0.00,209.0,WeatherDisplay:10.37,2013-02-01 10:45:00,
2013-02-01 11:50:00,57.5,52.3,30.02,SSE,164,6.0,15.0,83,0.00,BKN,,0.00,209.0,WeatherDisplay:10.37,2013-02-01 10:50:00,
2013-02-01 11:55:00,57.7,52.6,30.01,SSE,166,6.0,12.0,83,0.00,BKN,,0.00,339.0,WeatherDisplay:10.37,2013-02-01 10:55:00,
2013-02-01 12:00:00,58.3,52.8,30.01,SSE,167,5.0,10.0,82,0.00,BKN,,0.00,492.0,WeatherDisplay:10.37,2013-02-01 11:00:00,
2013-02-01 12:05:00,58.8,53.0,30.01,SSE,161,6.0,10.0,81,0.00,BKN,,0.00,396.0,WeatherDisplay:10.37,2013-02-01 11:05:00,
2013-02-01 12:10:00,58.7,52.9,30.00,SSE,162,3.0,12.0,81,0.00,BKN,,0.00,352.0,WeatherDisplay:10.37,2013-02-01 11:10:00,
2013-02-01 12:20:00,59.1,53.2,30.00,South,177,7.0,14.0,81,0.00,BKN,,0.00,320.0,WeatherDisplay:10.37,2013-02-01 11:20:00,
2013-02-01 12:25:00,58.7,52.5,30.00,South,171,3.0,13.0,80,0.00,BKN,,0.00,387.0,WeatherDisplay:10.37,2013-02-01 11:25:00,
2013-02-01 12:30:00,58.8,52.7,30.00,SSE,165,7.0,12.0,80,0.00,BKN,,0.00,272.0,WeatherDisplay:10.37,2013-02-01 11:30:00,
2013-02-01 12:35:00,58.7,52.8,30.00,SSE,163,7.0,12.0,81,0.00,BKN,,0.00,504.0,WeatherDisplay:10.37,2013-02-01 11:35:00,
2013-02-01 12:40:00,58.9,52.7,29.99,SSE,167,8.0,13.0,80,0.00,BKN,,0.00,388.0,WeatherDisplay:10.37,2013-02-01 11:40:00,
2013-02-01 12:45:00,58.8,52.6,30.00,South,178,8.0,12.0,80,0.00,SCT,,0.00,234.0,WeatherDisplay:10.37,2013-02-01 11:45:00,
2013-02-01 12:50:00,58.8,53.0,30.00,South,175,3.0,10.0,81,0.00,SCT,,0.00,255.0,WeatherDisplay:10.37,2013-02-01 11:50:00,
2013-02-01 12:55:00,58.9,52.7,30.00,South,175,6.0,10.0,80,0.00,SCT,,0.00,304.0,WeatherDisplay:10.37,2013-02-01 11:55:00,
2013-02-01 13:00:00,59.1,52.9,29.99,South,176,7.0,10.0,80,0.00,SCT,,0.00,269.0,WeatherDisplay:10.37,2013-02-01 12:00:00,
2013-02-01 13:05:00,59.3,53.5,29.99,South,172,6.0,13.0,81,0.00,SCT,,0.00,547.0,WeatherDisplay:10.37,2013-02-01 12:05:00,
2013-02-01 13:10:00,59.7,53.5,29.98,SSE,168,6.0,10.0,80,0.00,SCT,,0.00,480.0,WeatherDisplay:10.37,2013-02-01 12:10:00,
2013-02-01 13:15:00,59.4,52.9,29.98,South,170,7.0,13.0,79,0.00,SCT,,0.00,473.0,WeatherDisplay:10.37,2013-02-01 12:15:00,
2013-02-01 13:20:00,59.0,53.5,29.98,South,175,5.0,15.0,82,0.00,SCT,,0.00,589.0,WeatherDisplay:10.37,2013-02-01 12:20:00,
2013-02-01 13:25:00,59.1,53.3,29.97,South,178,9.0,14.0,81,0.00,SCT,,0.00,564.0,WeatherDisplay:10.37,2013-02-01 12:25:00,
2013-02-01 13:30:00,59.5,53.6,29.97,South,182,7.0,16.0,81,0.00,SCT,,0.00,513.0,WeatherDisplay:10.37,2013-02-01 12:30:00,
2013-02-01 13:35:00,60.2,54.3,29.97,South,170,5.0,12.0,81,0.00,SCT,,0.00,490.0,WeatherDisplay:10.37,2013-02-01 12:35:00,
2013-02-01 13:40:00,59.8,53.6,29.96,SSE,167,6.0,12.0,80,0.00,SCT,,0.00,490.0,WeatherDisplay:10.37,2013-02-01 12:40:00,
2013-02-01 13:45:00,60.1,54.3,29.96,South,175,5.0,9.0,81,0.00,SCT,,0.00,485.0,WeatherDisplay:10.37,2013-02-01 12:45:00,
2013-02-01 13:50:00,59.5,53.0,29.96,South,183,9.0,17.0,79,0.00,SCT,,0.00,487.0,WeatherDisplay:10.37,2013-02-01 12:50:00,
2013-02-01 13:55:00,59.4,53.2,29.95,South,178,7.0,12.0,80,0.00,SCT,,0.00,448.0,WeatherDisplay:10.37,2013-02-01 12:55:00,
2013-02-01 14:00:00,59.9,53.7,29.95,South,169,5.0,12.0,80,0.00,SCT,,0.00,445.0,WeatherDisplay:10.37,2013-02-01 13:00:00,
2013-02-01 14:05:00,59.8,53.0,29.94,SSE,166,8.0,13.0,78,0.00,SCT,,0.00,454.0,WeatherDisplay:10.37,2013-02-01 13:05:00,
2013-02-01 14:10:00,59.7,52.8,29.95,South,177,8.0,13.0,78,0.00,SCT,,0.00,431.0,WeatherDisplay:10.37,2013-02-01 13:10:00,
2013-02-01 14:15:00,59.9,53.4,29.95,South,183,8.0,13.0,79,0.00,SCT,,0.00,457.0,WeatherDisplay:10.37,2013-02-01 13:15:00,
2013-02-01 14:20:00,59.9,53.0,29.95,South,177,5.0,13.0,78,0.00,SCT,,0.00,424.0,WeatherDisplay:10.37,2013-02-01 13:20:00,
2013-02-01 14:25:00,60.2,53.0,29.95,South,172,5.0,12.0,77,0.00,SCT,,0.00,134.0,WeatherDisplay:10.37,2013-02-01 13:25:00,
2013-02-01 14:30:00,60.1,52.5,29.95,South,175,10.0,13.0,76,0.00,SCT,,0.00,411.0,WeatherDisplay:10.37,2013-02-01 13:30:00,
2013-02-01 14:35:00,59.7,52.5,29.95,South,187,8.0,12.0,77,0.00,SCT,,0.00,436.0,WeatherDisplay:10.37,2013-02-01 13:35:00,
2013-02-01 14:40:00,59.6,52.4,29.95,South,185,6.0,12.0,77,0.00,SCT,,0.00,415.0,WeatherDisplay:10.37,2013-02-01 13:40:00,
2013-02-01 14:45:00,59.3,52.5,29.94,South,179,7.0,13.0,78,0.00,SCT,,0.00,163.0,WeatherDisplay:10.37,2013-02-01 13:45:00,
2013-02-01 14:50:00,59.1,52.6,29.94,South,182,5.0,9.0,79,0.00,SCT,,0.00,167.0,WeatherDisplay:10.37,2013-02-01 13:50:00,
2013-02-01 14:55:00,58.9,52.7,29.94,South,170,6.0,10.0,80,0.00,SCT,,0.00,179.0,WeatherDisplay:10.37,2013-02-01 13:55:00,
2013-02-01 15:00:00,59.0,53.2,29.94,South,171,6.0,10.0,81,0.00,SCT,,0.00,206.0,WeatherDisplay:10.37,2013-02-01 14:00:00,
2013-02-01 15:05:00,58.7,52.5,29.93,South,170,8.0,14.0,80,0.00,SCT,,0.00,253.0,WeatherDisplay:10.37,2013-02-01 14:05:00,
2013-02-01 15:10:00,58.1,52.3,29.93,South,173,7.0,12.0,81,0.00,SCT,,0.00,148.0,WeatherDisplay:10.37,2013-02-01 14:10:00,
2013-02-01 15:15:00,57.9,52.5,29.93,SSE,167,3.0,10.0,82,0.00,SCT,,0.00,149.0,WeatherDisplay:10.37,2013-02-01 14:15:00,
2013-02-01 15:20:00,57.8,52.3,29.93,SSE,166,6.0,12.0,82,0.00,SCT,,0.00,230.0,WeatherDisplay:10.37,2013-02-01 14:20:00,
2013-02-01 15:25:00,57.9,52.4,29.92,South,171,8.0,13.0,82,0.00,SCT,,0.00,190.0,WeatherDisplay:10.37,2013-02-01 14:25:00,
2013-02-01 15:30:00,57.8,52.7,29.93,South,171,6.0,14.0,83,0.00,SCT,,0.00,153.0,WeatherDisplay:10.37,2013-02-01 14:30:00,
2013-02-01 15:35:00,57.8,52.7,29.92,South,175,8.0,12.0,83,0.00,SCT,,0.00,237.0,WeatherDisplay:10.37,2013-02-01 14:35:00,
2013-02-01 15:40:00,58.1,52.9,29.92,South,172,5.0,10.0,83,0.00,SCT,,0.00,197.0,WeatherDisplay:10.37,2013-02-01 14:40:00,
2013-02-01 15:45:00,57.9,52.4,29.92,SSE,166,9.0,15.0,82,0.00,SCT,,0.00,146.0,WeatherDisplay:10.37,2013-02-01 14:45:00,
2013-02-01 15:55:00,57.6,52.5,29.92,South,179,8.0,12.0,83,0.00,SCT,,0.00,179.0,WeatherDisplay:10.37,2013-02-01 14:55:00,
2013-02-01 16:00:00,57.5,52.4,29.92,South,178,9.0,14.0,83,0.00,SCT,,0.00,151.0,WeatherDisplay:10.37,2013-02-01 15:00:00,
2013-02-01 16:05:00,57.6,52.8,29.91,South,175,6.0,12.0,84,0.00,SCT,,0.00,158.0,WeatherDisplay:10.37,2013-02-01 15:05:00,
2013-02-01 16:10:00,57.5,52.7,29.91,South,175,8.0,13.0,84,0.00,SCT,,0.00,128.0,WeatherDisplay:10.37,2013-02-01 15:10:00,
2013-02-01 16:15:00,57.4,52.9,29.91,South,181,6.0,14.0,85,0.00,FEW,,0.00,97.0,WeatherDisplay:10.37,2013-02-01 15:15:00,
2013-02-01 16:20:00,57.2,52.7,29.91,South,183,6.0,15.0,85,0.00,FEW,,0.00,76.0,WeatherDisplay:10.37,2013-02-01 15:20:00,
2013-02-01 16:25:00,57.0,52.5,29.91,South,177,7.0,12.0,85,0.00,FEW,,0.00,63.0,WeatherDisplay:10.37,2013-02-01 15:25:00,
2013-02-01 16:30:00,56.8,52.3,29.90,SSE,167,6.0,12.0,85,0.00,FEW,,0.00,54.0,WeatherDisplay:10.37,2013-02-01 15:30:00,
2013-02-01 16:35:00,56.8,52.6,29.90,South,173,5.0,9.0,86,0.00,FEW,,0.00,42.0,WeatherDisplay:10.37,2013-02-01 15:35:00,
2013-02-01 16:40:00,56.8,52.7,29.90,South,177,5.0,10.0,86,0.00,FEW,,0.00,42.0,WeatherDisplay:10.37,2013-02-01 15:40:00,
2013-02-01 16:45:00,57.0,52.9,29.90,South,184,6.0,12.0,86,0.00,BKN,,0.00,26.0,WeatherDisplay:10.37,2013-02-01 15:45:00,
2013-02-01 16:50:00,57.2,53.0,29.90,South,179,2.0,7.0,86,0.00,BKN,,0.00,12.0,WeatherDisplay:10.37,2013-02-01 15:50:00,
2013-02-01 16:55:00,57.2,53.0,29.90,South,178,5.0,12.0,86,0.00,BKN,,0.00,12.0,WeatherDisplay:10.37,2013-02-01 15:55:00,
2013-02-01 17:00:00,57.1,53.0,29.90,South,179,5.0,12.0,86,0.00,BKN,,0.00,12.0,WeatherDisplay:10.37,2013-02-01 16:00:00,
2013-02-01 17:05:00,56.9,52.8,29.90,South,175,3.0,10.0,86,0.00,BKN,,0.00,9.0,WeatherDisplay:10.37,2013-02-01 16:05:00,
2013-02-01 17:10:00,56.9,53.1,29.89,South,169,5.0,10.0,87,0.00,BKN,,0.00,7.0,WeatherDisplay:10.37,2013-02-01 16:10:00,
2013-02-01 17:15:00,56.8,53.0,29.89,SSE,167,5.0,8.0,87,0.00,BKN,,0.00,5.0,WeatherDisplay:10.37,2013-02-01 16:15:00,
2013-02-01 17:20:00,56.8,52.9,29.89,South,172,2.0,8.0,87,0.00,BKN,,0.00,0.0,WeatherDisplay:10.37,2013-02-01 16:20:00,
2013-02-01 17:25:00,56.8,53.3,29.89,South,176,6.0,7.0,88,0.00,BKN,,0.00,0.0,WeatherDisplay:10.37,2013-02-01 16:25:00,
2013-02-01 17:30:00,56.7,53.2,29.89,South,176,5.0,9.0,88,0.00,BKN,,0.00,0.0,WeatherDisplay:10.37,2013-02-01 16:30:00,
2013-02-01 17:35:00,56.7,53.2,29.89,South,177,6.0,10.0,88,0.00,BKN,,0.00,0.0,WeatherDisplay:10.37,2013-02-01 16:35:00,
2013-02-01 17:40:00,56.7,53.2,29.89,South,178,5.0,9.0,88,0.00,BKN,,0.00,0.0,WeatherDisplay:10.37,2013-02-01 16:40:00,
2013-02-01 17:45:00,56.6,53.1,29.89,South,179,7.0,12.0,88,0.00,BKN,,0.00,0.0,WeatherDisplay:10.37,2013-02-01 16:45:00,
2013-02-01 17:50:00,56.5,53.0,29.88,South,182,6.0,10.0,88,0.00,BKN,,0.00,0.0,WeatherDisplay:10.37,2013-02-01 16:50:00,
2013-02-01 17:55:00,56.3,52.8,29.88,South,178,5.0,12.0,88,0.00,BKN,,0.00,0.0,WeatherDisplay:10.37,2013-02-01 16:55:00,
2013-02-01 18:00:00,56.1,52.6,29.88,SSE,168,6.0,10.0,88,0.00,BKN,,0.00,0.0,WeatherDisplay:10.37,2013-02-01 17:00:00,
2013-02-01 18:05:00,56.0,52.5,29.88,SSE,165,7.0,12.0,88,0.00,BKN,,0.00,0.0,WeatherDisplay:10.37,2013-02-01 17:05:00,
2013-02-01 18:10:00,56.0,52.5,29.88,SSE,168,6.0,12.0,88,0.00,BKN,,0.00,0.0,WeatherDisplay:10.37,2013-02-01 17:10:00,
2013-02-01 18:15:00,55.9,52.7,29.88,SSE,166,6.0,10.0,89,0.00,SCT,,0.00,0.0,WeatherDisplay:10.37,2013-02-01 17:15:00,
2013-02-01 18:20:00,55.7,52.5,29.87,SSE,163,7.0,12.0,89,0.00,SCT,,0.00,0.0,WeatherDisplay:10.37,2013-02-01 17:20:00,
2013-02-01 18:25:00,55.6,52.4,29.88,South,179,7.0,12.0,89,0.00,SCT,,0.00,0.0,WeatherDisplay:10.37,2013-02-01 17:25:00,
2013-02-01 18:30:00,55.5,52.3,29.87,South,179,7.0,12.0,89,0.00,SCT,,0.00,0.0,WeatherDisplay:10.37,2013-02-01 17:30:00,
2013-02-01 18:35:00,55.4,52.2,29.87,South,174,7.0,12.0,89,0.00,SCT,,0.00,0.0,WeatherDisplay:10.37,2013-02-01 17:35:00,
2013-02-01 18:40:00,55.3,52.1,29.87,South,169,6.0,12.0,89,0.00,SCT,,0.00,0.0,WeatherDisplay:10.37,2013-02-01 17:40:00,
2013-02-01 18:45:00,55.2,52.0,29.87,SSE,164,5.0,10.0,89,0.00,SCT,,0.00,0.0,WeatherDisplay:10.37,2013-02-01 17:45:00,
2013-02-01 18:50:00,55.0,51.8,29.87,SSE,160,5.0,7.0,89,0.00,SCT,,0.00,0.0,WeatherDisplay:10.37,2013-02-01 17:50:00,
2013-02-01 18:55:00,54.9,51.7,29.87,South,169,8.0,12.0,89,0.00,SCT,,0.00,0.0,WeatherDisplay:10.37,2013-02-01 17:55:00,
2013-02-01 19:00:00,54.7,51.8,29.86,SSE,168,6.0,13.0,90,0.00,SCT,,0.00,0.0,WeatherDisplay:10.37,2013-02-01 18:00:00,
2013-02-01 19:05:00,54.6,51.7,29.87,SSE,157,6.0,10.0,90,0.00,SCT,,0.00,0.0,WeatherDisplay:10.37,2013-02-01 18:05:00,
2013-02-01 19:10:00,54.4,51.5,29.86,SSE,165,6.0,10.0,90,0.00,SCT,,0.00,0.0,WeatherDisplay:10.37,2013-02-01 18:10:00,
2013-02-01 19:15:00,54.3,51.4,29.86,SSE,164,5.0,9.0,90,0.00,SCT,,0.00,0.0,WeatherDisplay:10.37,2013-02-01 18:15:00,
2013-02-01 19:20:00,54.2,51.6,29.86,SSE,162,6.0,10.0,91,0.00,SCT,,0.00,0.0,WeatherDisplay:10.37,2013-02-01 18:20:00,
2013-02-01 19:25:00,54.1,51.5,29.86,SSE,166,8.0,12.0,91,0.00,SCT,,0.00,0.0,WeatherDisplay:10.37,2013-02-01 18:25:00,
2013-02-01 19:30:00,54.1,51.5,29.86,South,176,8.0,12.0,91,0.00,SCT,,0.00,0.0,WeatherDisplay:10.37,2013-02-01 18:30:00,
2013-02-01 19:35:00,54.1,51.5,29.85,South,172,7.0,12.0,91,0.00,FEW,,0.00,0.0,WeatherDisplay:10.37,2013-02-01 18:35:00,
2013-02-01 19:45:00,54.0,51.4,29.85,South,169,6.0,12.0,91,0.00,FEW,,0.00,0.0,WeatherDisplay:10.37,2013-02-01 18:45:00,
2013-02-01 19:50:00,53.9,51.3,29.85,South,179,6.0,10.0,91,0.00,FEW,,0.00,0.0,WeatherDisplay:10.37,2013-02-01 18:50:00,
2013-02-01 19:55:00,53.9,51.6,29.84,South,179,5.0,12.0,92,0.00,FEW,,0.00,0.0,WeatherDisplay:10.37,2013-02-01 18:55:00,
2013-02-01 20:00:00,53.9,51.6,29.84,SSE,166,6.0,13.0,92,0.00,FEW,,0.00,0.0,WeatherDisplay:10.37,2013-02-01 19:00:00,
2013-02-01 20:05:00,53.9,51.6,29.84,South,171,7.0,13.0,92,0.00,FEW,,0.00,0.0,WeatherDisplay:10.37,2013-02-01 19:05:00,
2013-02-01 20:10:00,53.9,51.6,29.84,SSE,167,6.0,13.0,92,0.00,FEW,,0.00,0.0,WeatherDisplay:10.37,2013-02-01 19:10:00,
2013-02-01 20:15:00,53.9,51.7,29.83,South,172,7.0,14.0,92,0.00,FEW,,0.00,0.0,WeatherDisplay:10.37,2013-02-01 19:15:00,
2013-02-01 20:20:00,54.3,52.0,29.83,South,172,7.0,16.0,92,0.00,FEW,,0.00,0.0,WeatherDisplay:10.37,2013-02-01 19:20:00,
2013-02-01 20:25:00,54.3,52.0,29.83,South,169,9.0,15.0,92,0.00,FEW,,0.00,0.0,WeatherDisplay:10.37,2013-02-01 19:25:00,
2013-02-01 20:30:00,54.4,52.1,29.83,SSE,168,7.0,16.0,92,0.00,FEW,,0.00,0.0,WeatherDisplay:10.37,2013-02-01 19:30:00,
2013-02-01 20:35:00,54.4,51.8,29.83,SSE,163,7.0,12.0,91,0.00,FEW,,0.00,0.0,WeatherDisplay:10.37,2013-02-01 19:35:00,
2013-02-01 20:40:00,54.5,51.9,29.83,SSE,161,7.0,16.0,91,0.00,FEW,,0.00,0.0,WeatherDisplay:10.37,2013-02-01 19:40:00,
2013-02-01 20:45:00,54.4,51.8,29.83,SSE,167,9.0,13.0,91,0.00,SCT,,0.00,0.0,WeatherDisplay:10.37,2013-02-01 19:45:00,
2013-02-01 20:50:00,54.4,51.8,29.82,SSE,157,8.0,15.0,91,0.00,SCT,,0.00,0.0,WeatherDisplay:10.37,2013-02-01 19:50:00,
2013-02-01 20:55:00,54.3,52.0,29.82,SSE,167,9.0,14.0,92,0.00,SCT,,0.00,0.0,WeatherDisplay:10.37,2013-02-01 19:55:00,
2013-02-01 21:00:00,54.2,51.7,29.82,South,181,8.0,15.0,91,0.00,SCT,,0.00,0.0,WeatherDisplay:10.37,2013-02-01 20:00:00,
2013-02-01 21:05:00,54.2,51.9,29.81,South,174,8.0,13.0,92,0.00,SCT,,0.00,0.0,WeatherDisplay:10.37,2013-02-01 20:05:00,
2013-02-01 21:10:00,54.2,51.9,29.81,South,170,9.0,13.0,92,0.00,SCT,,0.00,0.0,WeatherDisplay:10.37,2013-02-01 20:10:00,
2013-02-01 21:15:00,54.3,52.0,29.81,SSE,167,6.0,13.0,92,0.00,FEW,,0.00,0.0,WeatherDisplay:10.37,2013-02-01 20:15:00,
2013-02-01 21:20:00,54.4,52.1,29.81,South,173,9.0,15.0,92,0.00,FEW,,0.00,0.0,WeatherDisplay:10.37,2013-02-01 20:20:00,
2013-02-01 21:25:00,54.6,52.3,29.81,SSE,163,9.0,16.0,92,0.00,FEW,,0.00,0.0,WeatherDisplay:10.37,2013-02-01 20:25:00,
2013-02-01 21:30:00,54.5,52.2,29.80,SSE,152,8.0,15.0,92,0.00,FEW,,0.00,0.0,WeatherDisplay:10.37,2013-02-01 20:30:00,
2013-02-01 21:35:00,54.6,52.0,29.80,SSE,163,9.0,15.0,91,0.00,,,0.00,0.0,WeatherDisplay:10.37,2013-02-01 20:35:00,
2013-02-01 21:40:00,54.7,52.1,29.80,SSE,166,9.0,16.0,91,0.00,,,0.00,0.0,WeatherDisplay:10.37,2013-02-01 20:40:00,
2013-02-01 21:45:00,54.7,52.1,29.79,SSE,164,10.0,17.0,91,0.00,,,0.00,0.0,WeatherDisplay:10.37,2013-02-01 20:45:00,
2013-02-01 21:50:00,54.8,52.2,29.79,South,169,12.0,20.0,91,0.00,,,0.00,0.0,WeatherDisplay:10.37,2013-02-01 20:50:00,
2013-02-01 21:55:00,54.8,52.2,29.79,SSE,163,8.0,16.0,91,0.00,,,0.00,0.0,WeatherDisplay:10.37,2013-02-01 20:55:00,
2013-02-01 22:00:00,54.9,52.3,29.79,SSE,160,12.0,18.0,91,0.00,,,0.00,0.0,WeatherDisplay:10.37,2013-02-01 21:00:00,
2013-02-01 22:05:00,54.8,51.9,29.78,SSE,163,7.0,14.0,90,0.00,,,0.00,0.0,WeatherDisplay:10.37,2013-02-01 21:05:00,
2013-02-01 22:10:00,54.8,51.9,29.78,SSE,162,9.0,16.0,90,0.00,,,0.00,0.0,WeatherDisplay:10.37,2013-02-01 21:10:00,
2013-02-01 22:15:00,54.9,52.0,29.77,SSE,163,7.0,16.0,90,0.00,FEW,,0.00,0.0,WeatherDisplay:10.37,2013-02-01 21:15:00,
2013-02-01 22:20:00,54.8,51.9,29.77,SSE,163,8.0,15.0,90,0.00,FEW,,0.00,0.0,WeatherDisplay:10.37,2013-02-01 21:20:00,
2013-02-01 22:25:00,54.8,51.9,29.77,South,169,7.0,17.0,90,0.00,FEW,,0.00,0.0,WeatherDisplay:10.37,2013-02-01 21:25:00,
2013-02-01 22:30:00,55.0,51.8,29.76,SSE,163,10.0,19.0,89,0.00,FEW,,0.00,0.0,WeatherDisplay:10.37,2013-02-01 21:30:00,
2013-02-01 22:35:00,55.1,51.9,29.76,SSE,165,10.0,18.0,89,0.00,FEW,,0.00,0.0,WeatherDisplay:10.37,2013-02-01 21:35:00,
2013-02-01 22:40:00,55.2,52.0,29.75,SSE,167,9.0,18.0,89,0.00,FEW,,0.00,0.0,WeatherDisplay:10.37,2013-02-01 21:40:00,
2013-02-01 22:45:00,55.3,51.8,29.75,SSE,164,10.0,18.0,88,0.00,,,0.00,0.0,WeatherDisplay:10.37,2013-02-01 21:45:00,
2013-02-01 22:50:00,55.3,51.8,29.74,SSE,161,12.0,20.0,88,0.00,,,0.00,0.0,WeatherDisplay:10.37,2013-02-01 21:50:00,
2013-02-01 23:00:00,55.4,51.6,29.73,SSE,151,9.0,17.0,87,0.00,,,0.00,0.0,WeatherDisplay:10.37,2013-02-01 22:00:00,
2013-02-01 23:05:00,55.3,51.5,29.73,SSE,167,12.0,20.0,87,0.00,,,0.00,0.0,WeatherDisplay:10.37,2013-02-01 22:05:00,
2013-02-01 23:10:00,55.3,51.5,29.73,South,171,8.0,17.0,87,0.00,,,0.00,0.0,WeatherDisplay:10.37,2013-02-01 22:10:00,
2013-02-01 23:15:00,55.5,51.7,29.73,SSE,166,10.0,20.0,87,0.00,,,0.00,0.0,WeatherDisplay:10.37,2013-02-01 22:15:00,
2013-02-01 23:20:00,55.5,51.7,29.73,South,169,13.0,21.0,87,0.00,,,0.00,0.0,WeatherDisplay:10.37,2013-02-01 22:20:00,
2013-02-01 23:25:00,55.4,51.6,29.72,SSE,156,9.0,22.0,87,0.00,,,0.00,0.0,WeatherDisplay:10.37,2013-02-01 22:25:00,
2013-02-01 23:30:00,55.4,51.6,29.72,SSE,160,12.0,20.0,87,0.00,,,0.00,0.0,WeatherDisplay:10.37,2013-02-01 22:30:00,
2013-02-01 23:35:00,55.5,51.7,29.72,SSE,161,13.0,20.0,87,0.00,,,0.00,0.0,WeatherDisplay:10.37,2013-02-01 22:35:00,
2013-02-01 23:40:00,55.6,51.8,29.72,SSE,162,8.0,20.0,87,0.00,,,0.00,0.0,WeatherDisplay:10.37,2013-02-01 22:40:00,
2013-02-01 23:45:00,55.8,52.0,29.71,SSE,162,13.0,24.0,87,0.00,,,0.00,0.0,WeatherDisplay:10.37,2013-02-01 22:45:00,
2013-02-01 23:50:00,55.7,51.9,29.70,SSE,152,10.0,20.0,87,0.00,,,0.00,0.0,WeatherDisplay:10.37,2013-02-01 22:50:00,
2013-02-01 23:55:00,55.7,51.9,29.71,SSE,163,10.0,24.0,87,0.00,,,0.00,0.0,WeatherDisplay:10.37,2013-02-01 22:55:00,